Location: Unspecified
(42.3650°N, 71.1030°W)
Time: 22:45:25
(UTC+00:00)

Transit 4A - Visible Passes

Search period start: 25 June 2024 00:00
Search period end: 05 July 2024 00:00
Orbit: 871 x 972 km, 66.8° (Epoch: 25 June)

Date Brightness Start Highest point End Pass type
(mag) Time Alt. Az. Time Alt. Az. Time Alt. Az.
25 Jun 7.9 01:52:28 10° S 01:58:05 52° ESE 02:03:43 10° NE visible
25 Jun 9.6 03:39:40 10° WSW 03:44:40 29° NW 03:49:42 10° NNE visible
26 Jun 7.7 02:01:13 10° SSW 02:07:02 77° ESE 02:12:51 10° NNE visible
26 Jun 10.1 03:49:37 10° W 03:53:59 21° NW 03:58:24 10° N visible
27 Jun 8.0 02:10:13 10° SW 02:16:02 74° WNW 02:21:53 10° NNE visible
27 Jun 10.5 03:59:53 10° WNW 04:03:24 16° NW 04:06:58 10° N visible
28 Jun 8.7 02:19:29 10° SW 02:25:08 51° NW 02:30:49 10° NNE visible
28 Jun 10.7 04:10:36 10° NW 04:12:55 12° NNW 04:15:14 10° N visible
29 Jun 9.4 02:28:59 10° WSW 02:34:19 36° NW 02:39:41 10° NNE visible
29 Jun 11.1 07:59:32 10° N 08:01:55 12° NNE 08:04:18 10° NE visible
30 Jun 7.8 00:51:11 10° SSW 00:56:52 58° ESE 01:02:35 10° NE visible
30 Jun 10.0 02:38:44 10° WSW 02:43:34 26° NW 02:48:27 10° NNE visible
30 Jun 10.9 08:07:49 10° N 08:11:25 16° NE 08:15:05 10° ENE visible
01 Jul 7.8 01:00:01 10° SSW 01:05:51 86° ESE 01:11:42 10° NNE visible
01 Jul 10.5 02:48:46 10° W 02:52:56 20° NW 02:57:06 10° N visible
01 Jul 10.7 08:16:21 10° N 08:20:51 21° NE 08:25:22 10° E visible
02 Jul 8.3 01:09:06 10° SW 01:14:53 66° WNW 01:20:42 10° NNE visible
02 Jul 10.8 02:59:09 10° WNW 03:02:22 15° NW 03:05:37 10° N visible
02 Jul 10.2 08:25:03 10° NNW 08:30:10 29° NE 08:35:23 10° ESE visible
03 Jul 9.0 01:18:26 10° SW 01:24:00 46° NW 01:29:37 10° NNE visible
03 Jul 11.1 03:10:07 10° NW 03:11:54 11° NNW 03:13:43 10° NNW visible
03 Jul 11.4 06:50:33 10° NNE 06:51:20 10° NNE 06:52:06 10° NE visible
03 Jul 9.6 08:33:51 10° NNW 08:39:25 39° NE 08:45:06 10° ESE visible
04 Jul 9.8 01:28:00 10° WSW 01:33:12 33° NW 01:38:26 10° NNE visible
04 Jul 11.2 06:58:04 10° N 07:00:54 13° NNE 07:03:45 10° ENE visible
